Simultaneous Nadir Overpasses (SNOs) Predictions

Prediction of SNOs between GOES-16 and METOP-B Satellite Orbit:

Table of predicted SNOs for the next 14.0 days since TLE Epoch: 2/22/2019
Index Date Time (GOES-16) GOES-16 Lat,Lon METOP-B Lat,Lon Distance(km) Time Diff (sec)
1 02/23/2019 14:26:52 0.02, -75.21 -0.07, -74.81 45.97 80
2 02/25/2019 02:48:32 -0.02, -75.20 -0.99, -79.39 478.66 80
3 02/26/2019 02:25:14 -0.02, -75.21 0.14, -74.40 91.03 80
4 02/27/2019 14:44:07 0.02, -75.23 0.86, -78.97 425.90 80
5 02/28/2019 14:26:09 0.01, -75.24 -0.27, -73.98 144.02 80
6 03/02/2019 02:45:10 -0.00, -75.24 -0.73, -78.58 379.76 80
7 03/03/2019 02:21:51 -0.00, -75.25 0.35, -73.58 190.62 80
8 03/04/2019 14:40:44 0.00, -75.29 0.65, -78.14 325.16 80
9 03/05/2019 14:20:06 0.00, -75.31 -0.48, -73.15 245.69 80
10 03/07/2019 02:41:47 -0.00, -75.32 -0.51, -77.75 276.63 80
11 03/08/2019 02:18:27 0.00, -75.34 0.56, -72.75 294.59 80




NCC Satellite Simultaneous Nadir Overpasses (SNOs) Prediction Service
